AirNav   TITAN Aviation Fuels
 
 1663 users online  

1IN4 Robinson Airpark
Elizabeth, Indiana, USA

GOING TO ELIZABETH?


FAA INFORMATION EFFECTIVE 16 JUNE 2022

Location

FAA Identifier: 1IN4
Lat/Long: 38-08-35.0000N 085-59-16.0000W
38-08.583333N 085-59.266667W
38.1430556,-85.9877778
(estimated)
Elevation: 775 ft. / 236 m (estimated)
Variation: 03W (1995)
From city: 1 mile NW of ELIZABETH, IN
Time zone: UTC -4 (UTC -5 during Standard Time)
Zip code: 47117

Airport Operations

Airport use: Private use. Permission required prior to landing
Activation date: 02/1998
Control tower: no
ARTCC: INDIANAPOLIS CENTER
FSS: TERRE HAUTE FLIGHT SERVICE STATION
Attendance: CONTINUOUS
Segmented circle: no

Airport Communications

WX ASOS at SDF (12 nm E): PHONE 502-367-1492
WX ASOS at LOU (16 nm E): 118.275 (502-473-0693)
WX AWOS-3 at JVY (18 nm NE): 118.575 (812-246-1278)

Nearby radio navigation aids

VOR radial/distance  VOR name  Freq  Var
FTKr358/14.2FORT KNOX VOR/DME109.6001W
MYSr040/(19.2)MYSTIC VOR108.2001W
IIUr276/19.5LOUISVILLE VORTAC114.8001E
EWOr333/34.0NEW HOPE VOR/DME110.8001E

 
NDB name  Hdg/Dist  Freq  Var  ID
GODMAN000/11.139603WGOI --. --- ..

Airport Services

Runway Information

Runway 9/27

Dimensions: 2000 x 30 ft. / 610 x 9 m
Surface: turf, in good condition
RUNWAY 9  RUNWAY 27
Traffic pattern: leftleft
Obstructions: none30 ft. trees, 500 ft. from runway

Airport Ownership and Management from official FAA records

Ownership: Privately-owned
Owner: JAMES E. ROBINSON
7300 PINE SHORE DRIVE
ELIZABETH, IN 47117
Phone 812-969-2859
Manager: JAMES E. ROBINSON
7300 PINE SHORE DRIVE
ELIZABETH, IN 47117
Phone 812-969-2859

Additional Remarks

FOR CD CTC LOUISVILLE APCH AT 502-375-7499

Instrument Procedures

There are no published instrument procedures at 1IN4.

Some nearby airports with instrument procedures:

KSDF - Louisville Muhammad Ali International Airport (12 nm E)
KFTK - Godman Army Airfield (14 nm S)
KLOU - Bowman Field Airport (16 nm E)
KJVY - Clark Regional Airport (18 nm NE)
KEKX - Addington Field Airport (28 nm S)
 
Loc | Ops | Rwys | IFR | FBO | Links
Com | Nav | Svcs | Stats | Notes
Area around 1IN4 (Robinson Airpark)
 
Road maps at: MapQuest Bing Google
 
Aerial photo
No photo
 
Sectional chart

 
Airport distance calculator
Flying to Robinson Airpark? Find the distance to fly.

From to 1IN4

Sunrise and sunset
Times for 07-Jul-2022
 Local
(UTC-4)
 Zulu
(UTC)
Morning civil twilight05:5809:58
Sunrise06:2910:29
Sunset21:0901:09
Evening civil twilight21:4001:40

Current date and time
Zulu (UTC)  07-Jul-2022 16:23:40
Local (UTC-4)  07-Jul-2022 12:23:40
 
METAR
KSDF 
12nm E 
071556Z 11005KT 7SM BKN014 OVC040 29/24 A3002 RMK AO2 SLP158 T02890239
KFTK 
16nm S 
071556Z AUTO 00000KT 10SM FEW012 FEW120 BKN140 BKN190 27/25 A3001 RMK AO2 SLP158 T02690249 $
KLOU 
16nm E 
071553Z VRB06KT 6SM HZ OVC012 28/23 A3002 RMK AO2 SLP159 T02780233 $
KJVY 
18nm NE 
071535Z AUTO 00000KT 10SM OVC010 26/23 A3002 RMK AO2
TAF
KSDF 
12nm E 
071402Z 0714/0818 VRB04KT 5SM BR OVC010 FM071500 VRB03KT P6SM BKN015 FM071600 VRB04KT P6SM OVC140 FM072200 VRB05KT 3SM -TSRA BKN050CB FM080000 00000KT P6SM BKN150 PROB30 0812/0818 4SM -TSRA BKN050CB
KFTK 
16nm S 
071240Z 0712/0817 32006KT 4800 BR OVC004 QNH2995INS BECMG 0714/0715 32006KT 9999 VCSH BKN025 OVC120 QNH3001INS TEMPO 0716/0720 28020G25KT 8000 -TSRA BKN020CB OVC120 BECMG 0720/0721 VRB06KT 9999 VCSH BKN050 QNH3001INS BECMG 0722/0723 VRB06KT 9000 BR FEW050 BKN120 QNH2997INS BECMG 0811/0812 VRB06KT 4800 -SHRA SCT010 OVC030 QNH3002INS TX32/0714Z TN22/0810Z
NOTAMs
Click for the latest NOTAMs
NOTAMs are issued by the DoD/FAA and will open in a separate window not controlled by AirNav.

 

 
 

Would you like to see your business listed on this page?

 If your business provides an interesting product or service to pilots, flight crews, aircraft, or users of the Robinson Airpark, you should consider listing it here.  To start the listing process, click on the button below
 
Add a business
 

Other Pages about Robinson Airpark

Update a link
 
Copyright © AirNav, LLC. All rights reserved. Privacy Policy  Contact